Martin, ND (58758)

1:57 PM CDT on October 24, 2014 (GMT -0500)
Harvey | Change Station
CLOSE
Current Station
Airport
Location: Harvey,
Elevation: 1608 ft
Nearby Weather Stations

Elev 1608 ft 47.79 °N, 99.93 °W | Updated 22 minutes ago

Clear
Clear
66 °F
Feels Like 66 °F
N
22
Wind Variable Wind from West
Gusts 28 mph

Today
High -- | Low -- °F
--% Chance of Precip.
Yesterday
High -- | Low -- °F
Precip. -- in
8:12 AM 6:35 PM
New Moon, 1% visible
Pressure 29.82 in
Visibility 10.0 miles
Clouds Clear
Dew Point 36 °F
Humidity 32%
Rainfall 0.00 in
Snow Depth Not available.
UV 3 out of 12
Pollen 2.70 out of 12
Air Quality Not available.
Flu Activity Local Activity
METAR K5H4 241835Z AUTO 28019G24KT 10SM CLR 19/02 A2982 RMK AO2

More Conditions Fewer Conditions

Pressure 29.82 in
Visibility 10.0 miles
Clouds Clear
Dew Point 36 °F
Humidity 32%
Rainfall 0.00 in
Snow Depth Not available.
UV 3 out of 12
Pollen 2.70 out of 12
Air Quality Not available.
Flu Activity Local Activity
METAR K5H4 241835Z AUTO 28019G24KT 10SM CLR 19/02 A2982 RMK AO2

More Conditions Fewer Conditions

10-Day Weather Forecast

Almanac

Astronomy

Oct. 24, 2014 Rise Set
Actual Time 8:12 AM CDT 6:35 PM CDT
Civil Twilight 7:41 AM CDT 7:07 PM CDT
Nautical Twilight 7:05 AM CDT 7:43 PM CDT
Astronomical Twilight 6:29 AM CDT 8:19 PM CDT
Moon 8:56 AM CDT 7:13 PM CDT
Length of Visible Light 11h 26m
Length of Day
10h 23m
Tomorrow will be 3m 13s shorter.
New Moon, 1% of the Moon is Illuminated
Today
New Moon
Oct 30
First Quarter
Nov 6
Full
Nov 14
Last Quarter
Nov 22
New

Today's Extremes

State Highs State Lows

Community

WunderPhotos

Upload Photos

1,764,634 photos uploaded!

Nearby

Snow Depth

Station Depth Elevation
No new snow has been reported.

Earthquake Activity

City Distance Mag. Time & Date
No recent earthquake activity has been reported nearby.
Minimum magnitude displayed is 2.5.

Coastal Water Temperatures

Place Temperature
No Stations Reporting

Nearby Weather Stations